Location: Ore Lake
(42.4733°N, 83.8017°W)
Time: 04:50:30
(UTC-05:00)

Daily predictions for brighter satellites

Satellite Brightness Start Highest point End
(mag) Time Altitude Azimuth Time Altitude Azimuth Time Altitude Azimuth
SL-16 R/B 3.1 04:57:16 45° ESE 04:57:16 45° ESE 05:01:16 10° SE
SeaSat 1 4.3 04:55:14 10° NNE 04:57:03 23° NNE 04:57:03 23° NNE
Cosmos 2297 Rocket 3.6 05:05:23 28° NNE 05:05:23 28° NNE 05:08:01 10° NNE
Cosmos 968 Rocket 4.3 05:06:47 47° ESE 05:07:16 49° ESE 05:12:20 10° NNE
USA 229 DEB 3.7 05:13:19 71° SSW 05:13:19 71° SSW 05:20:07 10° SSE
USA 229 3.7 05:13:22 72° SW 05:13:22 72° SW 05:20:13 10° SSE
Cosmos 2227 Rocket 3.9 05:18:50 22° N 05:18:50 22° N 05:20:52 10° NNE
Tsikada Rocket 4.1 05:19:15 60° SSW 05:19:15 60° SSW 05:24:17 10° S
Feng Yun 1-1 Rocket 4.1 05:20:58 10° NNE 05:26:07 79° N 05:26:07 79° N
SKYMED 2 4.4 05:22:42 10° SE 05:26:51 48° ENE 05:27:32 44° NE
NOAA 6 4.4 05:23:50 10° NNE 05:29:00 64° E 05:34:09 10° S
Cosmos 1340 Rocket 4.2 05:34:58 28° NNE 05:36:23 37° ENE 05:40:05 10° SE
Cosmos 2221 4.3 05:34:28 10° SSE 05:38:20 32° E 05:42:12 10° NNE
Cosmos 1725 Rocket 4.5 05:40:50 42° NNW 05:40:50 42° NNW 05:45:18 10° N
SL-14 R/B 3.7 05:41:34 61° ENE 05:41:49 63° E 05:45:49 10° SSE
Tiangong 2 3.7 05:53:42 15° SSE 05:54:28 16° SSE 05:56:27 10° ESE
USA 234 4.1 05:51:20 10° E 05:57:25 43° NNE 06:01:29 21° NNW
ERBS 3.0 05:59:49 46° SSE 05:59:49 46° SSE 06:02:23 10° SE
Cosmos 1603 3.8 05:56:06 21° NNW 05:59:55 77° ENE 06:05:35 10° SSE
Cosmos 2151 2.8 05:59:21 49° NNW 06:00:26 80° W 06:04:41 10° S
NOSS 3-1 (C) 4.0 06:01:36 24° NW 06:06:37 77° WSW 06:14:57 10° SSE
DELTA 2 R/B (1) 4.4 06:04:53 22° SW 06:08:05 44° SSE 06:13:21 10° E
COSMO-SKYMED 1 2.7 06:10:40 10° S 06:14:52 50° W 06:16:07 38° NW
Cosmos 1538 Rocket 4.2 06:13:23 31° NW 06:15:38 50° WSW 06:20:46 10° S
CZ-2C R/B 4.1 06:13:45 10° NNE 06:17:54 33° E 06:22:01 10° SSE
IDEFIX/ARIANE 42P 4.1 06:14:18 10° NNE 06:19:13 38° E 06:24:06 10° SSE
CSL-04 Rocket 3.8 06:13:56 10° NNE 06:19:15 73° ESE 06:24:30 10° S
Cosmos 1805 Rocket 3.7 06:15:50 10° N 06:20:16 74° E 06:24:39 10° SSE
TELKOM 3 3.8 06:21:13 45° NNE 06:21:13 45° NNE 06:22:56 10° NE
CZ-4 R/B 3.0 06:18:46 10° NNE 06:22:34 37° E 06:26:24 10° SSE
Ariane Rocket 2.9 06:17:55 10° NNE 06:23:03 86° WNW 06:28:09 10° SSW
Cosmos 923 Rocket 4.0 06:18:04 11° NNW 06:23:12 87° ENE 06:28:28 10° SSE
Genesis I 3.4 06:24:37 39° WNW 06:25:38 51° WSW 06:29:25 10° SSE
Cosmos 2233 Rocket 4.4 06:20:13 10° SW 06:25:56 37° WNW 06:31:45 10° N
SL-8 R/B 3.6 06:25:32 31° WNW 06:27:52 87° SSW 06:32:39 10° ESE
Cosmos 2227 4.1 06:25:06 10° SW 06:30:39 61° WNW 06:36:15 10° NNE
Cosmos 1680 Rocket 3.6 06:25:55 10° NNW 06:31:16 80° ENE 06:36:35 10° SSE
GPS 2-05 Rocket1 4.4 06:30:13 18° SW 06:31:31 24° S 06:34:15 10° SE
CZ-3 Stage 3 3.9 06:28:59 12° SW 06:32:55 28° S 06:45:49 10° ESE
SeaSat 1 4.0 06:33:57 10° N 06:36:52 17° NW 06:36:52 17° NW
SL-16 R/B 3.5 06:39:13 19° W 06:39:13 19° W 06:42:58 10° SW
YAOGAN 3 4.5 06:35:37 10° N 06:39:59 81° WNW 06:44:21 10° SSW
Sich 1 3.1 06:36:40 10° N 06:41:04 80° E 06:45:21 10° S
ISS -1.0 06:41:57 12° SW 06:41:57 12° SW 06:43:06 10° SSW
Cosmos 1633 Rocket 3.1 06:41:51 10° N 06:46:13 80° E 06:50:33 10° S
Coronas F rocket 1.3 06:44:29 10° N 06:46:52 67° E 06:49:15 10° SSE
Cosmos 2297 Rocket 3.8 06:47:14 14° NW 06:47:22 14° NW 06:50:20 10° NNW
PAYLOAD A 3.8 06:42:20 10° NNE 06:47:23 82° WNW 06:52:12 10° SSW
Cosmos 2034 Rocket 3.9 06:43:31 10° SSW 06:49:41 71° W 06:55:57 10° N
Cosmos 1328 Rocket 4.4 06:45:41 10° S 06:49:53 53° E 06:54:09 10° NNE
Nadezhda 4 Rocket 4.1 06:45:54 10° N 06:52:16 89° E 06:58:34 10° S
Cosmos 1703 3.6 06:49:34 10° NNW 06:53:18 42° W 06:57:00 10° SSW
Cosmos 389 Rocket 2.6 06:51:19 10° S 06:54:59 88° E 06:58:41 10° N
Meteor 1-28 Rocket 4.4 06:56:12 10° SW 06:59:08 22° W 07:01:21 14° NW
Gbstr 26 Del rocket 4.4 06:56:29 10° SW 07:01:52 62° SE 07:08:36 10° ENE
Cosmos 1626 2.5 06:58:30 10° NNW 07:02:03 41° W 07:05:34 10° SSW
Cosmos 1271 Rocket 4.1 07:00:28 10° WSW 07:03:05 18° WNW 07:05:42 10° NNW
Cosmos 2058 4.2 07:00:42 12° NW 07:03:18 20° W 07:06:21 10° SW
PSLV R/B 3.4 07:01:41 13° W 07:04:35 69° S 07:07:55 10° E
Cosmos 2344 3.9 06:56:57 10° SSW 07:04:36 79° ESE 07:13:15 10° NE
Cosmos 2112 Rocket 4.1 07:01:17 10° NNW 07:06:32 59° WSW 07:11:46 10° S
YAOGAN 1 2.7 07:03:02 10° NNE 07:07:24 82° ESE 07:11:44 10° SSW
Cosmos 1092 Rocket 4.1 07:04:43 10° N 07:11:03 90° SE 07:17:16 10° S
BREEZE-M DEB (TANK) 3.0 07:09:46 11° NW 07:12:08 30° NNE 07:14:03 10° E
Cosmos 1184 Rocket 3.6 07:09:11 10° NNW 07:12:08 30° W 07:15:05 10° SSW
Cosmos 1340 Rocket 4.4 07:10:40 11° WNW 07:12:31 15° W 07:14:49 10° WSW
Cosmos 2221 3.7 07:12:39 10° WSW 07:15:58 21° WNW 07:19:18 10° NNW
Cosmos 1666 Rocket 4.2 07:14:59 10° NNW 07:19:05 36° W 07:23:10 10° SSW
Cosmos 1943 3.5 07:15:15 10° NW 07:20:45 51° WSW 07:26:14 10° S
Cosmos 1484 Rocket 3.2 07:17:46 10° NNE 07:21:48 71° ESE 07:25:45 10° S
SMAP 3.1 07:20:48 10° N 07:25:23 58° WNW 07:29:56 10° SSW
ATLAS 2AS CENTAUR R/B 3.2 07:18:26 10° NW 07:26:35 85° NE 07:34:08 10° SE
APEX 2.9 07:23:48 10° SSW 07:27:37 65° WNW 07:30:45 10° NNE
CORIOLIS 4.2 07:23:27 10° N 07:28:52 74° WNW 07:34:16 10° SSW
Helios 1B rocket 2.5 07:25:03 10° S 07:29:06 59° WSW 07:33:10 10° NNW
Cosmos 192 4.4 07:25:21 10° NNW 07:30:19 81° WSW 07:35:17 10° SSE
Cosmos 1933 Rocket 3.6 07:26:19 10° NNW 07:30:47 74° W 07:35:10 10° S
